User: anonymous   Login
Location: Unspecified
(0.0000°N, 0.0000°E)
Time: 19:53:21
(UTC+00:00)
Language:

STEP CUBE LAB - Orbit

View from above orbital plane
View from above orbital plane
View from above satellite
View from above satellite

Ground track
Ground track

The orbit data is extracted from the following two-line orbital elements,

1 43138U 18004AD  19340.85609629 +.00001198 +00000-0 +51607-4 0  9996
2 43138 097.4721 048.6475 0009493 025.4855 334.6849 15.24536820105592
Epoch (UTC): 06 December 2019 20:32:46
Eccentricity: 0.0009493
inclination: 97.4721°
perigee height: 485 km
apogee height: 499 km
right ascension of ascending node: 48.6475°
argument of perigee: 25.4855°
revolutions per day: 15.24536820
mean anomaly at epoch: 334.6849°
orbit number at epoch: 10559

The dashed part of the orbit path shows where the satellite is in the earth's shadow,  

DLR